This is the latest recevied weather packets stored in our database for station/object K7KAR-2. If no packets are shown the sender has not sent any weather packets the latest 10 day(s).
| Time | Temp. | Humidity | Pressure | Rain* | Wind** | Luminosity | Snow |
|---|---|---|---|---|---|---|---|
| 1778308709 | 18.89° C | 10% | 1010.2 hPa | 0 mm | - | 0 W/m² | - |
| 1778308405 | 18.33° C | 10% | 1010.5 hPa | 0 mm | - | 0 W/m² | - |
| 1778308102 | 17.78° C | 10% | 1010.2 hPa | 0 mm | - | 0 W/m² | - |
| 1778307799 | 17.78° C | 10% | 1010.2 hPa | 0 mm | - | 0 W/m² | - |
| 1778307496 | 18.33° C | 10% | 1009.7 hPa | 0 mm | - | 0 W/m² | - |
| 1778307195 | 17.78° C | 10% | 1009.5 hPa | 0 mm | - | 0 W/m² | - |
| 1778306891 | 18.33° C | 10% | 1009.7 hPa | 0 mm | - | 0 W/m² | - |
| 1778306588 | 17.22° C | 10% | 1009.6 hPa | 0 mm | - | 0 W/m² | - |
| 1778306283 | 17.22° C | 10% | 1009.5 hPa | 0 mm | - | 0 W/m² | - |
| 1778305979 | 16.67° C | 10% | 1009.4 hPa | 0 mm | - | 0 W/m² | - |
| 1778305676 | 16.67° C | 12% | 1009.3 hPa | 0 mm | - | 0 W/m² | - |
| 1778305372 | 16.67° C | 11% | 1009.5 hPa | 0 mm | - | 0 W/m² | - |
| 1778305071 | 16.11° C | 12% | 1009.5 hPa | 0 mm | - | 0 W/m² | - |
| 1778304768 | 15.56° C | 14% | 1009.5 hPa | 0 mm | - | 0 W/m² | - |
| 1778304466 | 15° C | 14% | 1009.2 hPa | 0 mm | - | 0 W/m² | - |
| 1778304163 | 15° C | 15% | 1009.4 hPa | 0 mm | - | 0 W/m² | - |
| 1778303861 | 15° C | 15% | 1009.6 hPa | 0 mm | - | 0 W/m² | - |
| 1778303559 | 15° C | 15% | 1009.3 hPa | 0 mm | - | 0 W/m² | - |
| 1778303255 | 15° C | 15% | 1009.5 hPa | 0 mm | - | 0 W/m² | - |
| 1778302951 | 15° C | 15% | 1009.4 hPa | 0 mm | - | 0 W/m² | - |
| 1778302649 | 15° C | 14% | 1009.4 hPa | 0 mm | - | 0 W/m² | - |
| 1778302346 | 15° C | 15% | 1009.2 hPa | 0 mm | - | 0 W/m² | - |
| 1778302043 | 15° C | 15% | 1009.4 hPa | 0 mm | - | 0 W/m² | - |
| 1778301741 | 15.56° C | 14% | 1009.5 hPa | 0 mm | - | 0 W/m² | - |
| 1778301437 | 15.56° C | 11% | 1009.1 hPa | 0 mm | - | 0 W/m² | - |
* Rain latest hour (hover to see other rain measurements)
** Current wind speed in m/s (hover to see current wind gust speed)